[[{"header":{"parameterUnit":"m.s-1","parameterCategory":1,"la1":30.2991,"la2":30.254,"lo1":-89.0895,"lo2":-89.0444,"dy":0.0017,"dx":0.0017,"nx":28,"ny":28,"refTime":"2025-04-23T21:00:00:Z","depth":0,"parameterNumber":2,"parameterNumberName":"U-component_of_WINDS"},"data":[0,0,0,0,0,0,0,0,0,0,0,0,0,0,0,0,0,0,0,0,0,0,0,0,0,0,0,0,0,0,0,0,0,0,0,0,0,0,0,0,0,0,0,0,0,0,0,0,0,0,0,0,0,0,0,0,0,0,-1.722,-1.7221,0,-1.7392,-1.7394,-1.7396,-1.7479,-1.7479,-1.7479,-1.7479,-1.7659,-1.7664,-1.7669,0,0,0,0,0,0,0,0,0,0,0,0,0,-1.6967,-1.6971,-1.7219,-1.7222,-1.7224,-1.7392,-1.7394,-1.7397,-1.7479,-1.7479,-1.7479,-1.7479,-1.7658,-1.7664,-1.7669,0,0,0,0,0,0,0,0,0,0,0,0,0,-1.7102,-1.6973,-1.7219,-1.7285,-1.7293,-1.7391,-1.7394,-1.7397,-1.7479,-1.7479,-1.7479,-1.7479,-1.7656,-1.7663,-1.767,-1.7718,0,0,-1.7693,-1.7696,0,0,0,0,0,0,0,0,-1.7094,-1.7111,-1.7273,-1.7281,-1.7289,-1.7414,-1.7372,-1.7505,-1.7479,-1.7408,-1.7479,-1.7479,-1.7578,-1.7592,-1.7624,-1.7726,-1.7734,-1.7693,-1.7698,-1.7701,-1.7703,0,0,0,0,0,0,0,-1.7085,-1.7104,-1.7288,-1.7275,-1.7285,-1.7308,-1.7327,-1.7397,-1.7492,-1.7414,-1.7421,-1.744,-1.7582,-1.7617,-1.7629,-1.7736,-1.7693,-1.7699,-1.7704,-1.7707,-1.7888,-1.7888,0,0,0,0,0,0,-1.7064,-1.7096,-1.7282,-1.7293,-1.7189,-1.7312,-1.7334,-1.7374,-1.7491,-1.7509,-1.744,-1.7443,-1.7605,-1.7621,-1.7636,-1.77,-1.7701,-1.7708,-1.7712,-1.7887,-1.7888,-1.7888,0,0,0,0,0,0,-1.7058,-1.708,-1.7275,-1.7196,-1.7223,-1.7317,-1.7361,-1.7377,-1.7412,-1.751,-1.7528,-1.7458,-1.7605,-1.7626,-1.7697,-1.7708,-1.7711,-1.7718,-1.7887,-1.7887,-1.7888,-1.7829,0,0,0,0,0,0,-1.7051,-1.7077,-1.7095,-1.7196,-1.7227,-1.7332,-1.7362,-1.7381,-1.7424,-1.743,-1.7532,-1.7549,-1.7607,-1.7685,-1.7704,-1.7718,-1.7723,-1.7886,-1.7887,-1.7888,-1.783,-1.7827,-1.7825,0,0,0,0,0,-1.7041,-1.7072,-1.7095,-1.7117,-1.725,-1.7332,-1.735,-1.7415,-1.7425,-1.7444,-1.7508,-1.7545,-1.7703,-1.7692,-1.7714,-1.773,-1.7886,-1.7887,-1.7888,-1.7831,-1.7828,-1.7825,0,0,0,0,0,0,-1.6971,-1.7086,-1.7114,-1.7177,-1.7244,-1.7346,-1.7372,-1.7409,-1.7476,-1.7479,-1.7558,-1.7581,-1.7645,-1.7695,-1.768,-1.7783,-1.7798,-1.7804,-1.7748,-1.7745,-1.7743,-1.773,-1.7729,0,0,0,0,0,-1.6963,-1.7017,-1.7116,-1.7163,-1.7195,-1.7278,-1.7316,-1.736,-1.7433,-1.7462,-1.7531,-1.7601,-1.7667,-1.7709,-1.7775,-1.7837,-1.7862,-1.7859,-1.7857,-1.7854,-1.7858,-1.7896,-1.7897,-1.7891,-1.7891,-1.7891,0,0,-1.6947,-1.7016,-1.7046,-1.7151,-1.7208,-1.7265,-1.7301,-1.7359,-1.7403,-1.7472,-1.7543,-1.7596,-1.768,-1.7747,-1.778,-1.7791,-1.7865,-1.7855,-1.7852,-1.7858,-1.7897,-1.7898,-1.7898,-1.7892,-1.7892,-1.7892,0,0,-1.6947,-1.7004,-1.705,-1.7106,-1.7191,-1.7246,-1.7257,-1.7354,-1.7391,-1.7463,-1.7516,-1.757,-1.7682,-1.774,-1.7784,-1.7807,-1.7845,-1.7826,-1.7812,-1.7849,-1.7849,-1.785,-1.7859,-1.7862,-1.783,-1.7829,-1.7829,0,-1.6917,-1.7002,-1.7069,-1.7125,-1.717,-1.7233,-1.7282,-1.7334,-1.7437,-1.7467,-1.7477,-1.7619,-1.768,-1.7762,-1.7768,-1.7801,-1.7818,-1.7815,-1.7843,-1.7845,-1.7847,-1.7857,-1.786,-1.7827,-1.7827,-1.7827,-1.7828,0,-1.6962,-1.7021,-1.7048,-1.7144,-1.7192,-1.7244,-1.7321,-1.7362,-1.7402,-1.7457,-1.7531,-1.7606,-1.7689,-1.7712,-1.7752,-1.7801,-1.7805,-1.7828,-1.7845,-1.7843,-1.7854,-1.7858,-1.7823,-1.7824,-1.7825,-1.7825,0,0,-1.6923,-1.7055,-1.7064,-1.7109,-1.7208,-1.7256,-1.7311,-1.7391,-1.7425,-1.7495,-1.7544,-1.7637,-1.766,-1.771,-1.7757,-1.7789,-1.7804,-1.7809,-1.7812,-1.7806,-1.7864,-1.7846,-1.7849,-1.7829,-1.783,-1.7831,-1.7857,0,-1.6937,-1.7037,-1.7099,-1.7175,-1.7231,-1.7293,-1.7341,-1.7408,-1.7461,-1.7518,-1.7577,-1.7642,-1.7666,-1.7696,-1.7731,-1.7795,-1.7817,-1.7794,-1.7878,-1.788,-1.7856,-1.7855,-1.7836,-1.7857,-1.7861,-1.7862,-1.7863,0,-1.6967,-1.7033,-1.7114,-1.7207,-1.7233,-1.7275,-1.7354,-1.7407,-1.7486,-1.7522,-1.7578,-1.7626,-1.7689,-1.77,-1.7789,-1.7772,-1.781,-1.7847,-1.785,-1.7861,-1.7872,-1.7867,-1.7865,-1.7868,-1.787,-1.7869,-1.7869,0,-1.6931,-1.7041,-1.7103,-1.714,-1.725,-1.7279,-1.7327,-1.7404,-1.7449,-1.7518,-1.7548,-1.7624,-1.7667,-1.7725,-1.7794,-1.7795,-1.7876,-1.7893,-1.7909,-1.7908,-1.7924,-1.7922,-1.7929,-1.7947,-1.7947,-1.7947,-1.7947,0,-1.6941,-1.6989,-1.7089,-1.7127,-1.7183,-1.7255,-1.7309,-1.7362,-1.7431,-1.7483,-1.7541,-1.7589,-1.7675,-1.7734,-1.7788,-1.7854,-1.7873,-1.7905,-1.7919,-1.79,-1.7896,-1.7927,-1.7928,-1.7948,-1.7948,-1.7947,-1.7947,0,-1.6911,-1.698,-1.7052,-1.7151,-1.7176,-1.7213,-1.7299,-1.734,-1.7395,-1.746,-1.748,-1.7568,-1.764,-1.7714,-1.7812,-1.7848,-1.7913,-1.7932,-1.7886,-1.7895,-1.7907,-1.7906,-1.7936,-1.7944,-1.7954,-1.7953,-1.7953,0,-1.6913,-1.6951,-1.7052,-1.709,-1.7136,-1.7197,-1.7242,-1.7315,-1.736,-1.7453,-1.7483,-1.7559,-1.7625,-1.7738,-1.7812,-1.7888,-1.7909,-1.7914,-1.7921,-1.7901,-1.7911,-1.7908,-1.7913,-1.7912,-1.7911,-1.7911,-1.7911,0,-1.691,-1.6942,-1.7004,-1.7078,-1.713,-1.7192,-1.7257,-1.7286,-1.7372,-1.742,-1.7494,-1.7544,-1.7645,-1.7721,-1.7805,-1.7857,-1.7899,-1.7908,-1.7916,-1.7898,-1.787,-1.7887,-1.788,-1.7907,-1.7907,-1.7908,-1.7908,-1.7908,-1.6897,-1.6934,-1.7011,-1.7079,-1.7135,-1.7194,-1.7237,-1.7298,-1.7361,-1.7447,-1.7487,-1.7561,-1.7641,-1.7759,-1.7809,-1.787,-1.7882,-1.7893,-1.7896,-1.7898,-1.7894,-1.786,-1.7886,-1.7886,-1.7886,-1.7886,-1.7887,0,-1.6898,-1.6951,-1.7012,-1.71,-1.7153,-1.7186,-1.726,-1.7304,-1.7368,-1.7437,-1.75,-1.7586,-1.766,-1.774,-1.7819,-1.7853,-1.7874,-1.7871,-1.787,-1.7882,-1.7879,-1.7864,-1.7853,-1.7853,-1.7853,-1.7853,-1.7853,-1.7853,-1.6905,-1.6969,-1.701,-1.7104,-1.7157,-1.7229,-1.7269,-1.7325,-1.738,-1.7473,-1.7535,-1.7586,-1.766,-1.7745,-1.7816,-1.7837,-1.7865,-1.7856,-1.7884,-1.7879,-1.7882,-1.7884,-1.7871,-1.7861,-1.7861,-1.7882,-1.7882,-1.7882]},{"header":{"parameterUnit":"m.s-1","parameterCategory":1,"la1":30.2991,"la2":30.254,"lo1":-89.0895,"lo2":-89.0444,"dy":0.0017,"dx":0.0017,"nx":28,"ny":28,"refTime":"2025-04-23T21:00:00:Z","depth":0,"parameterNumber":3,"parameterNumberName":"V-component_of_WINDS"},"data":[0,0,0,0,0,0,0,0,0,0,0,0,0,0,0,0,0,0,0,0,0,0,0,0,0,0,0,0,0,0,0,0,0,0,0,0,0,0,0,0,0,0,0,0,0,0,0,0,0,0,0,0,0,0,0,0,0,0,5.4664,5.4664,0,5.4699,5.4699,5.47,5.4739,5.474,5.474,5.4741,5.4773,5.4774,5.4774,0,0,0,0,0,0,0,0,0,0,0,0,0,5.4628,5.4628,5.4663,5.4664,5.4664,5.4699,5.4699,5.47,5.4739,5.474,5.474,5.4741,5.4773,5.4774,5.4774,0,0,0,0,0,0,0,0,0,0,0,0,0,5.4651,5.4628,5.4663,5.4688,5.4691,5.4699,5.4699,5.47,5.4739,5.474,5.4741,5.4741,5.4773,5.4774,5.4774,5.476,0,0,5.4776,5.4776,0,0,0,0,0,0,0,0,5.465,5.4652,5.4684,5.4686,5.4689,5.4716,5.4699,5.472,5.4739,5.472,5.4741,5.4742,5.4753,5.4755,5.476,5.4761,5.4762,5.4776,5.4776,5.4776,5.4776,0,0,0,0,0,0,0,5.4648,5.4651,5.4677,5.4684,5.4688,5.4697,5.4701,5.4703,5.4731,5.4722,5.4725,5.4729,5.4755,5.4759,5.4761,5.4763,5.4776,5.4776,5.4776,5.4777,5.4755,5.4754,0,0,0,0,0,0,5.4643,5.465,5.4676,5.4678,5.4671,5.4697,5.4702,5.4706,5.4731,5.4736,5.4728,5.4731,5.4758,5.476,5.4762,5.4747,5.4776,5.4777,5.4777,5.4756,5.4755,5.4754,0,0,0,0,0,0,5.4642,5.4645,5.4675,5.4665,5.4669,5.4697,5.4701,5.4706,5.4711,5.4736,5.4741,5.4728,5.4759,5.4762,5.476,5.4749,5.4777,5.4777,5.4757,5.4756,5.4754,5.4717,0,0,0,0,0,0,5.4641,5.4645,5.464,5.4665,5.467,5.4673,5.4701,5.4706,5.4712,5.4716,5.4737,5.4741,5.476,5.476,5.4761,5.475,5.4778,5.4758,5.4756,5.4755,5.4719,5.4714,5.471,0,0,0,0,0,5.464,5.4626,5.4639,5.4642,5.4664,5.4672,5.4675,5.4697,5.4711,5.4706,5.4723,5.4741,5.475,5.4759,5.4761,5.475,5.4759,5.4757,5.4755,5.4721,5.4715,5.471,0,0,0,0,0,0,5.4598,5.463,5.4644,5.4639,5.4653,5.4679,5.4673,5.469,5.4699,5.4702,5.4729,5.4733,5.4729,5.474,5.4749,5.4738,5.4757,5.4756,5.4731,5.4725,5.4721,5.4718,5.4778,0,0,0,0,0,5.4588,5.4593,5.4621,5.4613,5.4619,5.4645,5.4649,5.4666,5.468,5.4686,5.4702,5.4715,5.4721,5.4724,5.4731,5.4721,5.4726,5.4715,5.4711,5.4707,5.4704,5.4701,5.4696,5.4747,5.4747,5.4748,0,0,5.4567,5.4586,5.4587,5.4605,5.4618,5.4621,5.4649,5.4651,5.4654,5.4686,5.4686,5.4698,5.4714,5.4709,5.4708,5.4718,5.4692,5.4704,5.4701,5.4701,5.4698,5.4693,5.4689,5.4746,5.4746,5.4747,0,0,5.4532,5.4547,5.4542,5.4555,5.4574,5.4592,5.4591,5.4615,5.4625,5.4626,5.465,5.4654,5.4663,5.4674,5.4681,5.4652,5.4669,5.4653,5.4629,5.4625,5.4621,5.4618,5.4607,5.4603,5.4651,5.4651,5.4651,0,5.4503,5.4511,5.4538,5.4539,5.4546,5.4578,5.4573,5.4584,5.4604,5.4608,5.462,5.4634,5.4647,5.4645,5.4638,5.4642,5.4642,5.465,5.462,5.4617,5.4614,5.4604,5.46,5.4649,5.4649,5.465,5.465,0,5.4475,5.448,5.4474,5.4494,5.4501,5.45,5.4526,5.453,5.4547,5.4563,5.4564,5.4581,5.4592,5.4593,5.4609,5.4594,5.4599,5.4615,5.4635,5.4607,5.4598,5.4594,5.4646,5.4647,5.4648,5.4648,0,0,5.4411,5.4449,5.4446,5.4456,5.4481,5.4485,5.4485,5.4498,5.45,5.4514,5.4514,5.4523,5.4539,5.4546,5.4563,5.456,5.4536,5.4577,5.4577,5.4568,5.452,5.4508,5.4503,5.4548,5.4548,5.4547,5.4519,0,5.4379,5.4383,5.4408,5.4404,5.4408,5.4439,5.444,5.4455,5.447,5.4476,5.4493,5.4499,5.4519,5.4524,5.4522,5.4539,5.4527,5.4542,5.4548,5.4548,5.4542,5.4498,5.4484,5.4456,5.4516,5.4515,5.4515,0,5.4342,5.4355,5.4351,5.4378,5.4381,5.4381,5.4395,5.4401,5.4419,5.443,5.444,5.446,5.4462,5.4482,5.4484,5.4494,5.4499,5.4508,5.4507,5.4507,5.4528,5.4496,5.4448,5.4444,5.451,5.451,5.451,0,5.4295,5.4312,5.4312,5.432,5.4351,5.435,5.4363,5.4382,5.4389,5.4401,5.4406,5.4417,5.4424,5.4432,5.4455,5.4468,5.4455,5.4477,5.4464,5.4463,5.4458,5.4458,5.4409,5.4463,5.4463,5.4463,5.4463,0,5.4256,5.4252,5.4292,5.4292,5.4289,5.4319,5.4315,5.4331,5.4348,5.4351,5.4378,5.4381,5.4412,5.4417,5.4435,5.4434,5.4437,5.4446,5.4451,5.4443,5.4442,5.4445,5.4447,5.4462,5.4462,5.4462,5.4463,0,5.4202,5.4229,5.4231,5.4262,5.4269,5.4266,5.4291,5.4292,5.4311,5.4315,5.4317,5.4346,5.4354,5.4378,5.4392,5.4405,5.4398,5.4407,5.4392,5.4395,5.4381,5.4381,5.4331,5.4326,5.4384,5.4383,5.4383,0,5.4175,5.4173,5.4204,5.4209,5.4221,5.4229,5.4236,5.4266,5.4272,5.4294,5.4292,5.4303,5.4313,5.4325,5.4346,5.4357,5.4367,5.4348,5.4368,5.4361,5.4365,5.4365,5.4365,5.4343,5.4342,5.4342,5.4341,0,5.4123,5.4137,5.4148,5.4163,5.4172,5.4185,5.4199,5.4202,5.4235,5.4241,5.4251,5.4259,5.4275,5.4285,5.43,5.4312,5.4332,5.4336,5.4333,5.4324,5.4315,5.4319,5.4379,5.4336,5.4336,5.4337,5.4337,5.4337,5.4082,5.4082,5.4104,5.4115,5.413,5.4144,5.4146,5.4166,5.4176,5.4192,5.4209,5.4216,5.4236,5.4258,5.4269,5.4275,5.4286,5.4282,5.4281,5.4279,5.4276,5.4316,5.4278,5.4278,5.4279,5.4279,5.4279,0,5.4031,5.4048,5.4058,5.4078,5.4087,5.4108,5.4125,5.4131,5.4138,5.4155,5.4165,5.4177,5.4188,5.4211,5.4224,5.4224,5.4233,5.4226,5.4226,5.4228,5.4266,5.4266,5.4218,5.4218,5.4218,5.4218,5.4218,5.4218,5.4005,5.4007,5.4024,5.4034,5.4051,5.406,5.4068,5.4081,5.4095,5.4107,5.4117,5.4133,5.4152,5.4167,5.4177,5.4184,5.4187,5.4176,5.4185,5.422,5.4225,5.4231,5.4232,5.4177,5.4177,5.4147,5.4147,5.4147]}]]